| time (UTC) | temp C | wind direction | speed KPH | gust KPH | rain 1hr cm | rain 24hr cm | rain mn cm | humidity % | barometer mb |
| 20260507055935 | 8 | 320 | 6.4 | 9.7 | 0.00 | 0.56 | 0.00 | 91 | 1014.0 |
| 20260507054936 | 8 | 357 | 4.8 | 9.7 | 0.00 | 0.58 | 0.00 | 91 | 1014.0 |
| 20260507053936 | 8 | 310 | 6.4 | 9.7 | 0.00 | 0.58 | 0.00 | 91 | 1014.0 |
| 20260507052936 | 8 | 0 | 4.8 | 11.3 | 0.00 | 0.61 | 0.00 | 91 | 1014.0 |
| 20260507051934 | 8 | 302 | 4.8 | 11.3 | 0.00 | 0.64 | 0.00 | 91 | 1013.8 |
| 20260507050936 | 8 | 314 | 9.7 | 14.5 | 0.00 | 0.69 | 0.00 | 91 | 1013.6 |
| 20260507045934 | 8 | 321 | 4.8 | 11.3 | 0.00 | 0.71 | 0.00 | 91 | 1013.5 |
| 20260507044934 | 8 | 320 | 6.4 | 11.3 | 0.00 | 0.74 | 0.00 | 91 | 1013.4 |
| 20260507044405 | 8 | 312 | 4.8 | 9.7 | 0.00 | 0.79 | 0.00 | 91 | 1013.3 |
| 20260507042934 | 8 | 351 | 6.4 | 11.3 | 0.00 | 0.81 | 0.00 | 91 | 1013.1 |
| 20260507041937 | 8 | 329 | 6.4 | 9.7 | 0.00 | 0.86 | 0.00 | 91 | 1013.0 |
| 20260507040938 | 8 | 299 | 4.8 | 9.7 | 0.00 | 0.89 | 0.00 | 91 | 1013.0 |
| 20260507035935 | 8 | 305 | 4.8 | 9.7 | 0.00 | 0.91 | 0.00 | 90 | 1012.9 |
| 20260507034934 | 8 | 317 | 4.8 | 8.0 | 0.00 | 0.97 | 0.00 | 90 | 1012.8 |
| 20260507033935 | 8 | 353 | 6.4 | 14.5 | 0.00 | 0.99 | 0.00 | 90 | 1012.8 |
| 20260507032936 | 8 | 0 | 6.4 | 11.3 | 0.00 | 1.04 | 0.00 | 90 | 1012.9 |
| 20260507031935 | 8 | 316 | 4.8 | 8.0 | 0.00 | 1.07 | 0.00 | 90 | 1012.9 |
| 20260507030934 | 8 | 316 | 4.8 | 11.3 | 0.00 | 1.09 | 0.00 | 90 | 1012.8 |
| 20260507030411 | 9 | 336 | 4.8 | 8.0 | 0.00 | 1.12 | 0.00 | 90 | 1012.7 |
| 20260507024934 | 9 | 313 | 4.8 | 9.7 | 0.00 | 1.14 | 0.00 | 90 | 1012.6 |
| 20260507023931 | 9 | 292 | 6.4 | 9.7 | 0.00 | 1.17 | 0.00 | 90 | 1012.7 |
| 20260507023405 | 9 | 306 | 4.8 | 8.0 | 0.00 | 1.22 | 0.00 | 90 | 1012.5 |
| 20260507022408 | 9 | 330 | 3.2 | 6.4 | 0.00 | 1.27 | 0.00 | 90 | 1012.5 |
| 20260507020936 | 9 | 312 | 3.2 | 6.4 | 0.00 | 1.27 | 0.00 | 90 | 1012.5 |
| 20260507015932 | 9 | 313 | 3.2 | 6.4 | 0.00 | 1.32 | 0.00 | 90 | 1012.5 |
| 20260507014932 | 8 | 313 | 3.2 | 6.4 | 0.00 | 1.37 | 0.00 | 90 | 1012.4 |
| 20260507013932 | 8 | 309 | 3.2 | 6.4 | 0.00 | 1.37 | 0.00 | 90 | 1012.3 |
| 20260507012933 | 8 | 306 | 1.6 | 8.0 | 0.00 | 1.42 | 0.00 | 91 | 1012.3 |
| 20260507011934 | 8 | 312 | 3.2 | 6.4 | 0.00 | 1.42 | 0.00 | 91 | 1012.2 |
| 20260507011849 | 8 | 320 | 3.2 | 4.8 | 0.00 | 1.45 | 0.00 | 92 | 1012.1 |
| 20260507005933 | 8 | 320 | 3.2 | 4.8 | 0.00 | 1.45 | 0.00 | 92 | 1012.1 |
| 20260507004933 | 8 | 313 | 1.6 | 6.4 | 0.00 | 1.47 | 0.00 | 92 | 1012.2 |
| 20260507003933 | 8 | 321 | 1.6 | 6.4 | 0.00 | 1.50 | 0.00 | 92 | 1012.2 |
| 20260507002932 | 8 | 331 | 1.6 | 6.4 | 0.00 | 1.52 | 0.00 | 93 | 1012.2 |
| 20260507001932 | 8 | 327 | 1.6 | 3.2 | 0.00 | 1.55 | 0.00 | 92 | 1012.1 |
| 20260507000934 | 8 | 327 | 1.6 | 4.8 | 0.00 | 1.55 | 0.00 | 92 | 1012.1 |
| 20260506235935 | 8 | 327 | 1.6 | 3.2 | 0.00 | 1.57 | 0.00 | 92 | 1012.0 |
| 20260506234932 | 8 | 327 | 0.0 | 4.8 | 0.00 | 1.60 | 0.00 | 92 | 1012.0 |
| 20260506233934 | 8 | 327 | 3.2 | 4.8 | 0.00 | 1.63 | 0.00 | 92 | 1012.0 |
| 20260506232934 | 8 | 327 | 0.0 | 3.2 | 0.00 | 1.65 | 0.00 | 92 | 1012.0 |
| 20260506231933 | 8 | 0 | 0.0 | 0.0 | 0.00 | 1.65 | 0.00 | 92 | 1011.8 |
| 20260506230934 | 8 | 0 | 0.0 | 1.6 | 0.00 | 1.68 | 0.00 | 91 | 1011.8 |
| 20260506225933 | 8 | 0 | 0.0 | 3.2 | 0.00 | 1.70 | 0.00 | 91 | 1011.8 |
| 20260506225413 | 8 | 327 | 1.6 | 3.2 | 0.00 | 1.70 | 0.00 | 91 | 1011.7 |
| 20260506223934 | 8 | 327 | 3.2 | 6.4 | 0.00 | 1.73 | 0.00 | 91 | 1011.7 |
| 20260506222932 | 8 | 324 | 3.2 | 4.8 | 0.00 | 1.73 | 0.00 | 91 | 1011.6 |
| 20260506221932 | 8 | 323 | 3.2 | 6.4 | 0.00 | 1.75 | 0.00 | 91 | 1011.5 |
| 20260506220932 | 8 | 0 | 3.2 | 8.0 | 0.00 | 1.75 | 0.00 | 91 | 1011.4 |
| 20260506220414 | 8 | 348 | 3.2 | 9.7 | 0.00 | 1.78 | 1.78 | 92 | 1011.3 |
| 20260506214931 | 8 | 323 | 4.8 | 9.7 | 0.00 | 1.80 | 1.78 | 92 | 1011.4 |
| 20260506213932 | 8 | 0 | 3.2 | 11.3 | 0.00 | 1.80 | 1.78 | 92 | 1011.3 |
| 20260506212933 | 8 | 16 | 6.4 | 11.3 | 0.00 | 1.83 | 1.78 | 92 | 1011.3 |
| 20260506211932 | 8 | 0 | 6.4 | 11.3 | 0.00 | 1.83 | 1.78 | 92 | 1011.2 |
| 20260506210931 | 8 | 0 | 4.8 | 8.0 | 0.00 | 1.83 | 1.78 | 92 | 1011.2 |
| 20260506205930 | 8 | 358 | 4.8 | 9.7 | 0.00 | 1.83 | 1.78 | 92 | 1011.1 |
| 20260506205415 | 8 | 348 | 6.4 | 9.7 | 0.00 | 1.85 | 1.78 | 92 | 1011.0 |
| 20260506203931 | 9 | 330 | 4.8 | 6.4 | 0.00 | 1.85 | 1.78 | 92 | 1011.0 |
| 20260506202933 | 9 | 344 | 3.2 | 9.7 | 0.00 | 1.85 | 1.78 | 92 | 1011.1 |
| 20260506202409 | 9 | 314 | 6.4 | 8.0 | 0.00 | 1.85 | 1.78 | 92 | 1011.0 |
| 20260506200932 | 9 | 345 | 6.4 | 9.7 | 0.00 | 1.88 | 1.78 | 93 | 1011.0 |
| 20260506195933 | 9 | 317 | 6.4 | 11.3 | 0.00 | 1.88 | 1.78 | 93 | 1010.9 |
| 20260506195412 | 9 | 353 | 3.2 | 8.0 | 0.00 | 1.88 | 1.78 | 93 | 1010.8 |
| 20260506193931 | 9 | 321 | 4.8 | 8.0 | 0.00 | 1.88 | 1.78 | 93 | 1010.7 |
| 20260506192932 | 9 | 334 | 3.2 | 8.0 | 0.00 | 1.91 | 1.78 | 93 | 1010.6 |
| 20260506191930 | 9 | 347 | 4.8 | 9.7 | 0.00 | 1.91 | 1.78 | 93 | 1010.5 |
| 20260506191410 | 9 | 295 | 4.8 | 9.7 | 0.00 | 1.91 | 1.78 | 92 | 1010.5 |
| 20260506185931 | 9 | 316 | 6.4 | 11.3 | 0.00 | 1.91 | 1.78 | 92 | 1010.3 |
| 20260506184932 | 9 | 336 | 6.4 | 16.1 | 0.00 | 1.91 | 1.78 | 92 | 1010.3 |
| 20260506183932 | 9 | 327 | 6.4 | 8.0 | 0.00 | 1.91 | 1.78 | 92 | 1010.2 |
| 20260506182931 | 9 | 350 | 4.8 | 11.3 | 0.00 | 1.91 | 1.78 | 92 | 1010.1 |
| 20260506181932 | 9 | 0 | 3.2 | 11.3 | 0.00 | 1.91 | 1.78 | 92 | 1009.9 |
| 20260506180930 | 9 | 344 | 8.0 | 16.1 | 0.00 | 1.91 | 1.78 | 92 | 1009.9 |
| 20260506175932 | 9 | 0 | 4.8 | 8.0 | 0.00 | 1.91 | 1.78 | 91 | 1009.8 |
| 20260506174931 | 9 | 3 | 6.4 | 16.1 | 0.00 | 1.91 | 1.78 | 91 | 1009.7 |
| 20260506173930 | 9 | 357 | 11.3 | 17.7 | 0.00 | 1.91 | 1.78 | 91 | 1009.6 |
| 20260506172932 | 9 | 355 | 6.4 | 14.5 | 0.00 | 1.91 | 1.78 | 91 | 1009.5 |
| 20260506171931 | 9 | 11 | 6.4 | 19.3 | 0.00 | 1.91 | 1.78 | 91 | 1009.4 |
| 20260506170928 | 9 | 8 | 4.8 | 16.1 | 0.00 | 1.91 | 1.78 | 91 | 1009.1 |
| 20260506165928 | 9 | 0 | 3.2 | 16.1 | 0.00 | 1.91 | 1.78 | 91 | 1009.1 |
| 20260506164927 | 9 | 343 | 6.4 | 16.1 | 0.00 | 1.91 | 1.78 | 90 | 1009.1 |
| 20260506163931 | 9 | 4 | 6.4 | 16.1 | 0.00 | 1.91 | 1.78 | 90 | 1009.0 |
| 20260506162927 | 10 | 28 | 8.0 | 14.5 | 0.00 | 1.91 | 1.78 | 91 | 1009.0 |
| 20260506161928 | 9 | 0 | 9.7 | 17.7 | 0.00 | 1.91 | 1.78 | 90 | 1008.9 |
| 20260506160927 | 10 | 0 | 8.0 | 17.7 | 0.00 | 1.91 | 1.78 | 90 | 1008.8 |
| 20260506155926 | 10 | 0 | 6.4 | 14.5 | 0.00 | 1.91 | 1.78 | 91 | 1008.8 |
| 20260506154926 | 10 | 0 | 6.4 | 11.3 | 0.00 | 1.91 | 1.78 | 91 | 1008.8 |
| 20260506153926 | 10 | 0 | 6.4 | 19.3 | 0.00 | 1.91 | 1.78 | 91 | 1008.8 |
| 20260506152926 | 10 | 0 | 8.0 | 11.3 | 0.00 | 1.91 | 1.78 | 91 | 1008.8 |
| 20260506151926 | 9 | 340 | 6.4 | 16.1 | 0.03 | 1.91 | 1.78 | 92 | 1008.7 |
| 20260506151407 | 9 | 358 | 11.3 | 17.7 | 0.03 | 1.91 | 1.78 | 92 | 1008.7 |
| 20260506145928 | 9 | 350 | 9.7 | 14.5 | 0.03 | 1.88 | 1.78 | 92 | 1008.7 |
| 20260506144925 | 9 | 313 | 9.7 | 14.5 | 0.03 | 1.88 | 1.78 | 92 | 1008.7 |
| 20260506143926 | 9 | 326 | 6.4 | 14.5 | 0.03 | 1.88 | 1.78 | 92 | 1008.7 |
| 20260506142925 | 9 | 320 | 6.4 | 16.1 | 0.03 | 1.88 | 1.78 | 92 | 1008.7 |
| 20260506141927 | 10 | 336 | 8.0 | 19.3 | 0.00 | 1.88 | 1.75 | 92 | 1008.6 |
| 20260506140926 | 10 | 0 | 11.3 | 19.3 | 0.00 | 1.88 | 1.75 | 92 | 1008.6 |
| 20260506135924 | 10 | 4 | 6.4 | 14.5 | 0.00 | 1.88 | 1.75 | 92 | 1008.6 |
| 20260506135402 | 10 | 354 | 8.0 | 16.1 | 0.00 | 1.88 | 1.75 | 92 | 1008.5 |
| 20260506133926 | 10 | 350 | 6.4 | 16.1 | 0.00 | 1.88 | 1.75 | 93 | 1008.5 |
| 20260506133414 | 10 | 307 | 6.4 | 17.7 | 0.00 | 1.88 | 1.75 | 93 | 1008.6 |
| 20260506131925 | 9 | 0 | 8.0 | 17.7 | 0.03 | 1.88 | 1.75 | 93 | 1008.5 |
| 20260506130922 | 9 | 350 | 8.0 | 19.3 | 0.05 | 1.88 | 1.75 | 93 | 1008.4 |
| 20260506125923 | 9 | 350 | 9.7 | 17.7 | 0.05 | 1.83 | 1.75 | 93 | 1008.3 |
| 20260506124922 | 9 | 309 | 8.0 | 14.5 | 0.08 | 1.83 | 1.75 | 93 | 1008.2 |
| 20260506124403 | 9 | 331 | 9.7 | 19.3 | 0.08 | 1.83 | 1.75 | 93 | 1008.2 |
| 20260506122922 | 9 | 305 | 6.4 | 11.3 | 0.10 | 1.83 | 1.75 | 93 | 1008.2 |
| 20260506121922 | 9 | 0 | 8.0 | 19.3 | 0.08 | 1.83 | 1.75 | 93 | 1008.1 |
| 20260506120925 | 9 | 355 | 8.0 | 17.7 | 0.08 | 1.83 | 1.73 | 93 | 1008.0 |
| 20260506115921 | 9 | 345 | 11.3 | 24.1 | 0.05 | 1.75 | 1.70 | 93 | 1008.0 |
| 20260506114922 | 9 | 347 | 11.3 | 19.3 | 0.05 | 1.75 | 1.68 | 93 | 1007.9 |
| 20260506113921 | 9 | 7 | 1.6 | 17.7 | 0.08 | 1.75 | 1.68 | 94 | 1007.9 |
| 20260506112922 | 9 | 347 | 6.4 | 25.7 | 0.10 | 1.75 | 1.65 | 94 | 1007.8 |
| 20260506111921 | 9 | 0 | 11.3 | 19.3 | 0.13 | 1.75 | 1.65 | 93 | 1007.8 |
| 20260506110920 | 9 | 343 | 9.7 | 19.3 | 0.13 | 1.75 | 1.65 | 94 | 1007.7 |
| 20260506105921 | 9 | 0 | 8.0 | 19.3 | 0.13 | 1.65 | 1.65 | 94 | 1007.7 |
| 20260506104920 | 9 | 0 | 6.4 | 22.5 | 0.13 | 1.65 | 1.63 | 94 | 1007.7 |
| 20260506104406 | 9 | 320 | 9.7 | 25.7 | 0.10 | 1.65 | 1.60 | 94 | 1007.7 |
| 20260506102920 | 9 | 357 | 11.3 | 27.4 | 0.08 | 1.65 | 1.55 | 94 | 1007.6 |
| 20260506101921 | 10 | 303 | 12.9 | 22.5 | 0.08 | 1.65 | 1.55 | 94 | 1007.4 |
| 20260506101354 | 10 | 326 | 8.0 | 16.1 | 0.08 | 1.65 | 1.52 | 94 | 1007.4 |
| 20260506095921 | 10 | 0 | 8.0 | 16.1 | 0.08 | 1.55 | 1.52 | 94 | 1007.3 |
| 20260506094920 | 10 | 340 | 8.0 | 16.1 | 0.08 | 1.55 | 1.50 | 94 | 1007.2 |
| 20260506093925 | 10 | 299 | 9.7 | 19.3 | 0.08 | 1.55 | 1.50 | 95 | 1007.1 |
| 20260506092917 | 10 | 345 | 11.3 | 19.3 | 0.08 | 1.55 | 1.47 | 94 | 1007.0 |
| 20260506091918 | 10 | 348 | 6.4 | 17.7 | 0.05 | 1.55 | 1.45 | 95 | 1007.1 |
| 20260506090912 | 10 | 347 | 9.7 | 16.1 | 0.05 | 1.55 | 1.45 | 95 | 1006.9 |
| 20260506090344 | 10 | 293 | 8.0 | 16.1 | 0.05 | 1.50 | 1.45 | 95 | 1006.8 |
| 20260506084910 | 10 | 330 | 8.0 | 14.5 | 0.05 | 1.50 | 1.42 | 95 | 1006.8 |
| 20260506083913 | 10 | 338 | 6.4 | 17.7 | 0.08 | 1.50 | 1.42 | 95 | 1006.8 |
| 20260506082907 | 10 | 312 | 6.4 | 16.1 | 0.05 | 1.50 | 1.40 | 95 | 1006.6 |
| 20260506081908 | 10 | 0 | 8.0 | 14.5 | 0.08 | 1.50 | 1.40 | 95 | 1006.6 |
| 20260506081830 | 10 | 340 | 8.0 | 19.3 | 0.08 | 1.50 | 1.37 | 95 | 1006.5 |
| 20260506072906 | 9 | 310 | 4.8 | 9.7 | 0.10 | 1.40 | 1.35 | 95 | 1006.4 |
| 20260506071904 | 9 | 309 | 6.4 | 19.3 | 0.10 | 1.40 | 1.32 | 95 | 1006.4 |
| 20260506071839 | 9 | 0 | 8.0 | 17.7 | 0.08 | 1.40 | 1.30 | 95 | 1006.3 |
| 20260506062342 | 9 | 329 | 9.7 | 17.7 | 0.08 | 1.35 | 1.22 | 96 | 1006.0 |
| 20260506060903 | 9 | 0 | 9.7 | 16.1 | 0.13 | 1.35 | 1.22 | 96 | 1006.0 |